TimeEDT,TemperatureF,Dew PointF,Humidity,Sea Level PressureIn,VisibilityMPH,Wind Direction,Wind SpeedMPH,Gust SpeedMPH,PrecipitationIn,Events,Conditions,WindDirDegrees,DateUTC
12:51 AM,64.0,57.0,78,30.22,10.0,SSE,3.5,-,0.00,Rain,Light Rain,160,2013-08-18 04:51:00
1:51 AM,63.0,57.9,84,30.22,10.0,Calm,Calm,-,0.01,Rain,Light Rain,0,2013-08-18 05:51:00
2:51 AM,62.1,57.9,86,30.21,10.0,Calm,Calm,-,0.00,Rain,Light Rain,0,2013-08-18 06:51:00
3:51 AM,61.0,57.9,90,30.21,10.0,Calm,Calm,-,0.02,Rain,Light Rain,0,2013-08-18 07:51:00
4:51 AM,61.0,57.9,90,30.20,10.0,Calm,Calm,-,0.02,Rain,Light Rain,0,2013-08-18 08:51:00
5:51 AM,60.1,57.9,93,30.22,10.0,Calm,Calm,-,0.02,Rain,Light Rain,0,2013-08-18 09:51:00
6:51 AM,60.1,57.9,93,30.22,10.0,Calm,Calm,-,0.03,Rain,Light Rain,0,2013-08-18 10:51:00
7:05 AM,60.8,57.2,88,30.23,9.0,Calm,Calm,-,0.00,Rain,Light Rain,0,2013-08-18 11:05:00
7:51 AM,61.0,59.0,93,30.24,10.0,Calm,Calm,-,0.01,Rain,Light Rain,0,2013-08-18 11:51:00
8:51 AM,62.1,59.0,90,30.25,10.0,Calm,Calm,-,0.00,Rain,Light Rain,0,2013-08-18 12:51:00
9:51 AM,63.0,60.1,90,30.25,10.0,Calm,Calm,-,0.01,,Overcast,0,2013-08-18 13:51:00
10:48 AM,66.2,60.8,83,30.26,10.0,Calm,Calm,-,N/A,,Overcast,0,2013-08-18 14:48:00
10:51 AM,66.0,61.0,84,30.25,10.0,Calm,Calm,-,N/A,,Overcast,0,2013-08-18 14:51:00
11:51 AM,68.0,62.1,81,30.24,10.0,North,3.5,-,N/A,,Overcast,360,2013-08-18 15:51:00
12:51 PM,70.0,62.1,76,30.23,10.0,Calm,Calm,-,N/A,,Overcast,0,2013-08-18 16:51:00
1:32 PM,73.4,62.6,69,30.23,10.0,Calm,Calm,-,N/A,,Overcast,0,2013-08-18 17:32:00
1:51 PM,73.0,63.0,71,30.21,10.0,Variable,4.6,-,N/A,,Overcast,0,2013-08-18 17:51:00
2:02 PM,73.4,62.6,69,30.23,10.0,NNW,4.6,-,N/A,,Mostly Cloudy,340,2013-08-18 18:02:00
2:10 PM,73.4,62.6,69,30.23,10.0,Calm,Calm,-,N/A,,Mostly Cloudy,0,2013-08-18 18:10:00
2:23 PM,73.4,62.6,69,30.23,10.0,Calm,Calm,-,N/A,,Overcast,0,2013-08-18 18:23:00
2:36 PM,73.4,62.6,69,30.22,10.0,Calm,Calm,-,N/A,,Overcast,0,2013-08-18 18:36:00
2:46 PM,73.4,64.4,73,30.22,10.0,Calm,Calm,-,N/A,,Overcast,0,2013-08-18 18:46:00
2:51 PM,73.9,63.0,68,30.20,10.0,Calm,Calm,-,N/A,,Overcast,0,2013-08-18 18:51:00
3:51 PM,70.0,63.0,78,30.19,10.0,WSW,5.8,-,0.00,Rain,Light Rain,250,2013-08-18 19:51:00
4:51 PM,71.1,64.9,81,30.19,10.0,Calm,Calm,-,0.02,,Overcast,0,2013-08-18 20:51:00
5:41 PM,69.8,64.4,83,30.21,10.0,Calm,Calm,-,0.00,Rain,Light Rain,0,2013-08-18 21:41:00
5:51 PM,68.0,64.9,90,30.20,4.0,NW,5.8,-,0.03,Rain,Rain,320,2013-08-18 21:51:00
6:07 PM,68.0,64.4,88,30.21,10.0,North,4.6,-,0.02,Rain,Light Rain,360,2013-08-18 22:07:00
6:51 PM,66.9,64.0,90,30.20,10.0,Calm,Calm,-,0.02,Rain,Light Rain,0,2013-08-18 22:51:00
7:31 PM,66.2,64.4,94,30.22,10.0,North,3.5,-,0.01,,Overcast,10,2013-08-18 23:31:00
7:51 PM,66.0,63.0,90,30.21,6.0,North,3.5,-,0.02,Rain,Light Rain,10,2013-08-18 23:51:00
7:59 PM,66.2,64.4,94,30.21,6.0,Calm,Calm,-,0.01,Rain,Light Rain,0,2013-08-18 23:59:00
8:07 PM,66.2,64.4,94,30.21,10.0,Calm,Calm,-,0.02,Rain,Light Rain,0,2013-08-19 00:07:00
8:33 PM,64.4,62.6,94,30.21,10.0,Calm,Calm,-,0.02,,Overcast,0,2013-08-19 00:33:00
8:51 PM,66.0,64.0,93,30.20,10.0,Calm,Calm,-,0.02,,Overcast,0,2013-08-19 00:51:00
9:08 PM,64.4,62.6,94,30.21,10.0,Calm,Calm,-,N/A,,Overcast,0,2013-08-19 01:08:00
9:51 PM,64.0,63.0,96,30.21,10.0,Calm,Calm,-,N/A,,Mostly Cloudy,0,2013-08-19 01:51:00
10:13 PM,64.4,62.6,94,30.22,8.0,Calm,Calm,-,N/A,,Mostly Cloudy,0,2013-08-19 02:13:00
10:23 PM,64.4,62.6,94,30.22,2.0,Calm,Calm,-,N/A,,Mostly Cloudy,0,2013-08-19 02:23:00
10:30 PM,64.4,62.6,94,30.22,1.0,Calm,Calm,-,N/A,,Overcast,0,2013-08-19 02:30:00
10:45 PM,64.4,62.6,94,30.22,3.0,Calm,Calm,-,N/A,,Overcast,0,2013-08-19 02:45:00
10:51 PM,63.0,62.1,97,30.21,7.0,Calm,Calm,-,N/A,,Mostly Cloudy,0,2013-08-19 02:51:00
11:10 PM,62.6,62.6,100,30.21,2.0,Calm,Calm,-,N/A,,Overcast,0,2013-08-19 03:10:00
11:28 PM,64.4,62.6,94,30.22,6.0,Calm,Calm,-,N/A,,Overcast,0,2013-08-19 03:28:00
11:51 PM,63.0,62.1,97,30.20,10.0,Calm,Calm,-,N/A,,Overcast,0,2013-08-19 03:51:00